This is the latest recevied weather packets stored in our database for station/object N9CQS-15. If no packets are shown the sender has not sent any weather packets the latest 1 day(s).
| Time | Temp. | Humidity | Pressure | Rain* | Wind** | Luminosity | Snow |
|---|---|---|---|---|---|---|---|
| 1778014742 | 9.44° C | 84% | 1010.8 hPa | 0 mm | 1.34 m/s, 310° | - | - |
| 1778014142 | 10° C | 84% | 1010.8 hPa | 0 mm | 0.89 m/s, 8° | - | - |
| 1778013543 | 10° C | 86% | 1011.1 hPa | 0.25 mm | 1.34 m/s, 322° | - | - |
| 1778012941 | 10° C | 85% | 1011.3 hPa | 0.25 mm | 1.79 m/s, 299° | - | - |
| 1778012342 | 9.44° C | 84% | 1011.3 hPa | 0 mm | 1.79 m/s, 300° | - | - |
| 1778011742 | 9.44° C | 83% | 1011.3 hPa | 0 mm | 1.79 m/s, 305° | - | - |
| 1778011142 | 10° C | 83% | 1011.1 hPa | 0 mm | 2.24 m/s, 314° | - | - |
| 1778010542 | 10° C | 87% | 1011 hPa | 0 mm | 1.79 m/s, 304° | - | - |
| 1778009942 | 10° C | 86% | 1011.2 hPa | 0.25 mm | 2.68 m/s, 312° | - | - |
| 1778009341 | 10.56° C | 84% | 1011.2 hPa | 0 mm | 1.79 m/s, 319° | - | - |
| 1778008741 | 10.56° C | 84% | 1011.2 hPa | 0.25 mm | 1.34 m/s, 310° | - | - |
| 1778008141 | 11.11° C | 82% | 1011.2 hPa | 0.25 mm | 1.79 m/s, 316° | - | - |
| 1778007541 | 11.11° C | 81% | 1011.2 hPa | 0 mm | 1.79 m/s, 306° | - | - |
| 1778006942 | 11.67° C | 77% | 1011.1 hPa | 0 mm | 1.79 m/s, 314° | - | - |
| 1778006341 | 11.67° C | 74% | 1010.6 hPa | 0 mm | 1.79 m/s, 311° | - | - |
| 1778005741 | 11.67° C | 74% | 1010.2 hPa | 0 mm | 1.79 m/s, 347° | - | - |
| 1778005141 | 11.67° C | 75% | 1010 hPa | 0 mm | 1.34 m/s, 359° | - | - |
| 1778004542 | 11.67° C | 75% | 1010.2 hPa | 0 mm | 1.34 m/s, 10° | - | - |
| 1778003942 | 11.67° C | 75% | 1010.4 hPa | 0 mm | 1.34 m/s, 11° | - | - |
| 1778003341 | 11.67° C | 75% | 1010.2 hPa | 0 mm | 1.79 m/s, 330° | - | - |
| 1778002741 | 11.67° C | 75% | 1009.8 hPa | 0 mm | 1.79 m/s, 15° | - | - |
| 1778002142 | 11.67° C | 75% | 1009.8 hPa | 0 mm | 1.79 m/s, 359° | - | - |
| 1778001542 | 11.67° C | 75% | 1009.8 hPa | 0 mm | 1.34 m/s, 4° | - | - |
| 1778000941 | 11.67° C | 73% | 1009.7 hPa | 0 mm | 1.79 m/s, 16° | - | - |
| 1778000342 | 11.67° C | 74% | 1009.7 hPa | 0 mm | 1.34 m/s, 17° | - | - |
* Rain latest hour (hover to see other rain measurements)
** Current wind speed in m/s (hover to see current wind gust speed)